Orbital Elements
Epoch 2007 Aug. 8.0 TT = JDT 2454320.5
T 2007 July 21.90010 TT MPC
q 1.8043726 (2000.0) P Q
z +0.0040392 Peri. 187.41975 -0.81793717 -0.46661618
+/-0.0000023 Node 318.66239 +0.55054312 -0.46507621
e 0.9927117 Incl. 30.63069 +0.16697620 -0.75231208
From 478 observations 2006 Dec. 9-2008 June 10, mean residual 0".5.
|